Location: Walnut Point State Park
(39.6958°N, 88.0345°W)
Time: 02:15:05
(UTC-05:00)

Amateur Radio Satellites - All Passes

Search period start: 22 August 2017 01:45
Search period end: 23 August 2017 01:45
Location: Walnut Point State Park, 39.6958°N, 88.0345°W

Satellite Date Start Highest point End Downlink Frequencies (MHz)
Time Altitude Azimuth
Gurwin Techsat 1B 22 Aug 01:51:23 01:55:37 24° 94° (E) 01:59:48 435.225
50 SAT 22 Aug 01:55:50 01:58:37 23° 263° (W) 02:01:25 437.505
Oscar 19 22 Aug 02:07:49 02:12:55 52° 100° (E) 02:17:58 437.125/150
BEESAT 22 Aug 02:13:02 02:16:29 20° 65° (ENE) 02:19:56 436.000
NANOSAT C BR1 22 Aug 02:19:05 02:20:38 12° 297° (WNW) 02:22:11 145.865
YUBILEINY 22 Aug 02:20:34 02:28:26 36° 72° (ENE) 02:36:14 435.215
ITUPSAT 1 22 Aug 02:46:57 02:51:25 42° 71° (ENE) 02:55:55 437.325
AO-7 22 Aug 02:53:10 02:57:56 16° 90° (E) 03:02:39 .
UKube-1 22 Aug 02:54:47 02:57:26 16° 267° (W) 03:00:08 .
BUGSAT 1 22 Aug 03:03:43 03:05:51 14° 295° (WNW) 03:07:59 437.445
MOZHAYETS 4 22 Aug 03:22:18 03:26:50 83° 75° (ENE) 03:31:25
Gurwin Techsat 1B 22 Aug 03:30:42 03:35:40 42° 290° (WNW) 03:40:38 435.225
ITAMSAT 1 22 Aug 03:30:49 03:34:42 21° 94° (E) 03:38:33 435.822/435.867
CUBESAT XI-V 22 Aug 03:46:01 03:50:01 29° 69° (ENE) 03:54:04 437.345
Oscar 19 22 Aug 03:48:09 03:51:48 20° 296° (WNW) 03:55:27 437.125/150
BEESAT 22 Aug 03:49:27 03:53:56 42° 261° (W) 03:58:27 436.000
BEESAT 3 22 Aug 03:55:51 03:58:00 14° 109° (ESE) 04:00:10 437.485
YUBILEINY 22 Aug 04:17:11 04:25:22 48° 272° (W) 04:33:32 435.215
ITUPSAT 1 22 Aug 04:26:04 04:29:25 19° 266° (W) 04:32:46 437.325
AO-85 22 Aug 04:29:59 04:32:51 19° 112° (ESE) 04:35:42 145.980
AO-7 22 Aug 04:43:20 04:51:43 87° 108° (ESE) 05:00:02 .
KKS-1 22 Aug 05:00:54 05:05:22 85° 75° (ENE) 05:09:52 437.445
ITAMSAT 1 22 Aug 05:09:25 05:14:19 44° 290° (WNW) 05:19:13 435.822/435.867
CUBESAT XI-V 22 Aug 05:23:25 05:27:19 27° 265° (W) 05:31:17 437.345
BEESAT 3 22 Aug 05:31:17 05:35:09 48° 305° (NW) 05:39:05 437.485
STARS 22 Aug 05:35:43 05:40:07 83° 78° (ENE) 05:44:32 437.465
BEESAT 2 22 Aug 05:47:55 05:51:55 81° 118° (ESE) 05:55:58 435.950
DOVE 4 22 Aug 05:49:28 05:53:38 37° 97° (E) 05:57:35 437.250
CUTE-I 22 Aug 05:50:53 05:52:39 12° 89° (E) 05:54:25 437.470
XW-2C 22 Aug 06:08:13 06:10:50 17° 93° (E) 06:13:28 145.795 - 145.815
AO-85 22 Aug 06:09:27 06:13:00 32° 308° (NW) 06:16:34 145.980
XW-2F 22 Aug 06:18:52 06:21:55 22° 95° (E) 06:24:56 145.980 - 146.000
STRAND 1 22 Aug 06:28:56 06:32:53 23° 65° (ENE) 06:36:50 437.568
PCSat 22 Aug 06:33:41 06:37:36 20° 46° (NE) 06:41:30 145.827
AO-7 22 Aug 06:37:35 06:43:27 22° 307° (NW) 06:49:19 .
KAITUO 1B 22 Aug 06:41:20 06:44:47 32° 97° (E) 06:48:14 145.475/437.950
HO-68 22 Aug 06:47:52 06:52:17 17° 91° (E) 06:56:41 435.675
LilacSat-2 22 Aug 07:08:36 07:12:29 74° 283° (WNW) 07:16:21 437.200
XW-2D 22 Aug 07:11:02 07:14:52 71° 284° (WNW) 07:18:41 145.860 - 145.880
NUDT-PHONESAT 22 Aug 07:11:40 07:15:27 81° 102° (ESE) 07:19:12 437.300
CUTE 1.7 + AOD 2 22 Aug 07:12:01 07:15:01 18° 93° (E) 07:18:00 437.475
XW-2B 22 Aug 07:22:12 07:25:57 52° 286° (WNW) 07:29:41 145.730 - 145.750
DOVE 4 22 Aug 07:27:52 07:31:01 19° 295° (WNW) 07:34:04 437.250
CUTE-I 22 Aug 07:27:57 07:33:17 80° 285° (WNW) 07:38:35 437.470
BEESAT 2 22 Aug 07:28:34 07:30:12 12° 319° (NW) 07:31:50 435.950
SO-50 22 Aug 07:30:44 07:35:08 46° 53° (NE) 07:39:34 436.795
CUBEBUG 2 22 Aug 07:37:39 07:40:35 18° 94° (E) 07:43:33 437.445
XW-2C 22 Aug 07:41:40 07:45:03 30° 289° (WNW) 07:48:26 145.795 - 145.815
Tancredo 1 22 Aug 07:43:01 07:44:29 13° 130° (SE) 07:45:55 437.200
NO-84 22 Aug 07:50:55 07:53:47 38° 39° (NE) 07:56:50 435.350 FM
XW-2A 22 Aug 07:51:36 07:54:19 22° 96° (E) 07:57:01 145.665 - 145.685
XW-2F 22 Aug 07:52:51 07:55:57 24° 290° (WNW) 07:59:03 145.980 - 146.000
SEEDS 22 Aug 07:56:19 08:00:15 35° 97° (E) 08:04:08 437.485
ZACube-1 22 Aug 08:05:15 08:06:36 11° 91° (E) 08:07:58 437.345
STRAND 1 22 Aug 08:06:58 08:11:47 41° 261° (W) 08:16:37 437.568
KAITUO 1B 22 Aug 08:16:06 08:18:30 16° 293° (WNW) 08:20:54 145.475/437.950
PCSat 22 Aug 08:16:06 08:21:30 67° 245° (WSW) 08:26:51 145.827
AO-73 22 Aug 08:24:13 08:27:04 17° 93° (E) 08:29:57 145.935
HO-68 22 Aug 08:33:33 08:40:44 81° 288° (WNW) 08:47:54 435.675
AAUSAT CUBESAT 2 22 Aug 08:37:15 08:41:18 46° 99° (E) 08:45:18 437.432
FO-29 22 Aug 08:42:34 08:49:37 45° 69° (ENE) 08:56:03 435.910
TIGRISAT 22 Aug 08:46:31 08:48:04 12° 63° (ENE) 08:49:37 435.000
CUTE 1.7 + AOD 2 22 Aug 08:47:00 08:50:56 36° 288° (WNW) 08:54:51 437.475
UWE-3 22 Aug 09:02:35 09:06:52 83° 281° (WNW) 09:11:15 435.000/436.395/437.385
Oscar 11 22 Aug 09:06:43 09:10:46 36° 98° (E) 09:14:47 .
CUTE-I 22 Aug 09:11:32 09:12:26 10° 302° (WNW) 09:13:19 437.470
SO-50 22 Aug 09:12:01 09:15:15 19° 249° (WSW) 09:18:31 436.795
CUBEBUG 2 22 Aug 09:13:26 09:17:17 35° 288° (WNW) 09:21:13 437.445
ISS 22 Aug 09:14:52 09:17:51 32° 135° (SE) 09:20:49 437.550
Tancredo 1 22 Aug 09:16:30 09:19:20 50° 326° (NW) 09:22:11 437.200
nSIGHT-1 22 Aug 09:21:07 09:24:12 40° 137° (SE) 09:27:17 .
PRISM 22 Aug 09:23:42 09:26:57 22° 68° (ENE) 09:30:13 437.425
XW-2A 22 Aug 09:24:28 09:26:54 18° 290° (WNW) 09:29:18 145.665 - 145.685
NO-84 22 Aug 09:28:54 09:30:59 16° 232° (SW) 09:33:10 435.350 FM
O/OREOS (USA 219) 22 Aug 09:28:59 09:33:26 77° 110° (ESE) 09:37:55 437.305
DELFI C3 22 Aug 09:30:29 09:32:41 14° 92° (E) 09:34:52 145.870
RS-15 22 Aug 09:32:16 09:41:25 26° 101° (E) 09:50:39 29.354- 29.394
SEEDS 22 Aug 09:32:39 09:35:40 19° 293° (WNW) 09:38:39 437.485
ZACube-1 22 Aug 09:38:58 09:43:12 60° 285° (WNW) 09:47:31 437.345
UNISAT 6 22 Aug 09:45:20 09:49:34 57° 75° (ENE) 09:53:47 437.425
EO-88 22 Aug 09:49:21 09:51:05 13° 92° (E) 09:52:49 145.990 - 145.960
AO-73 22 Aug 09:59:25 10:03:26 39° 287° (WNW) 10:07:31 145.935
M-CUBED/EXP-1 PRIME 22 Aug 10:09:52 10:12:45 17° 59° (ENE) 10:15:39 437.505
AAUSAT CUBESAT 2 22 Aug 10:14:02 10:16:20 15° 295° (WNW) 10:18:38 437.432
TIGRISAT 22 Aug 10:19:57 10:24:14 62° 258° (WSW) 10:28:29 435.000
HO-68 22 Aug 10:23:26 10:27:22 16° 306° (NW) 10:31:18 435.675
FO-29 22 Aug 10:27:49 10:34:37 35° 263° (W) 10:40:56 435.910
Max Valier Satellite 22 Aug 10:30:42 10:34:22 60° 101° (E) 10:38:02 145.860
AIST 2D 22 Aug 10:40:09 10:42:52 21° 70° (ENE) 10:45:35 435.315
Oscar 11 22 Aug 10:43:31 10:46:36 19° 293° (WNW) 10:49:43 .
DUCHIFAT 1 22 Aug 10:49:30 10:50:41 11° 63° (ENE) 10:51:54 145.980
ISS 22 Aug 10:51:22 10:54:19 29° 332° (NNW) 10:57:15 437.550
Tancredo 1 22 Aug 10:53:53 10:55:04 12° 344° (NNW) 10:56:14 437.200
nSIGHT-1 22 Aug 10:57:51 11:00:40 26° 334° (NNW) 11:03:28 .
PRISM 22 Aug 10:58:28 11:02:04 28° 263° (W) 11:05:42 437.425
DELFI C3 22 Aug 11:03:54 11:07:37 39° 287° (WNW) 11:11:17 145.870
O/OREOS (USA 219) 22 Aug 11:11:54 11:13:25 11° 308° (NW) 11:14:56 437.305
LO-87 22 Aug 11:13:29 11:15:53 17° 94° (E) 11:18:15 145.935 - 145.965
EO-88 22 Aug 11:21:29 11:24:53 36° 287° (WNW) 11:28:17 145.990 - 145.960
UNISAT 6 22 Aug 11:25:13 11:26:37 11° 269° (W) 11:28:01 437.425
NANOSAT C BR1 22 Aug 11:32:21 11:36:13 38° 72° (ENE) 11:40:06 145.865
JUGNU 22 Aug 11:33:49 11:34:11 10° 178° (S) 11:34:33 437.505
POLYITAN 1 22 Aug 11:38:23 11:42:26 50° 74° (ENE) 11:46:30 437.675
RS-15 22 Aug 11:40:09 11:52:25 85° 301° (WNW) 12:04:52 29.354- 29.394
M-CUBED/EXP-1 PRIME 22 Aug 11:42:12 11:46:37 56° 255° (WSW) 11:51:13 437.505
QB50P2 22 Aug 11:53:28 11:57:40 85° 77° (ENE) 12:01:54 145.880/145.840
EO-79 22 Aug 11:53:35 11:57:46 77° 76° (ENE) 12:01:58 145.935-145.965
ESTCUBE 1 22 Aug 11:57:43 12:02:01 40° 98° (E) 12:06:17 437.505/2401.250
AIST 2D 22 Aug 12:13:24 12:15:58 19° 266° (W) 12:18:34 435.315
BUGSAT 1 22 Aug 12:15:57 12:19:25 27° 70° (ENE) 12:22:52 437.445
DUCHIFAT 1 22 Aug 12:21:40 12:25:48 63° 259° (W) 12:29:56 145.980
ISS 22 Aug 12:30:26 12:31:38 11° 351° (N) 12:32:48 437.550
nSIGHT-1 22 Aug 12:36:59 12:37:55 11° 353° (N) 12:38:52 .
LO-87 22 Aug 12:46:21 12:49:18 25° 289° (WNW) 12:52:14 145.935 - 145.965
AO-85 22 Aug 13:00:37 13:03:37 18° 46° (NE) 13:06:45 145.980
NANOSAT C BR1 22 Aug 13:09:23 13:12:03 16° 267° (W) 13:14:45 145.865
Gurwin Techsat 1B 22 Aug 13:11:27 13:16:15 35° 68° (ENE) 13:21:03 435.225
POLYITAN 1 22 Aug 13:16:41 13:18:29 12° 269° (W) 13:20:19 437.675
50 SAT 22 Aug 13:18:03 13:20:27 18° 95° (E) 13:22:49 437.505
Oscar 19 22 Aug 13:23:42 13:28:48 70° 74° (ENE) 13:33:58 437.125/150
SPROUT 22 Aug 13:28:26 13:32:40 79° 285° (WNW) 13:36:54 437.525
DX 1 22 Aug 13:30:25 13:33:47 22° 95° (E) 13:37:08 434.975-435.025
VELOX 1 22 Aug 13:33:28 13:37:55 89° 103° (ESE) 13:42:18 145.980
ESTCUBE 1 22 Aug 13:35:17 13:38:30 19° 294° (WNW) 13:41:41 437.505/2401.250
BEESAT 3 22 Aug 13:48:33 13:52:33 71° 57° (ENE) 13:56:28 437.485
AO-7 22 Aug 13:51:05 13:57:28 25° 55° (NE) 14:03:49 .
BUGSAT 1 22 Aug 13:51:35 13:54:45 21° 265° (W) 13:57:54 437.445
RS-15 22 Aug 13:56:23 14:06:57 32° 328° (NNW) 14:17:32 29.354- 29.394
Tancredo 1 22 Aug 14:05:16 14:07:25 18° 24° (NNE) 14:09:34 437.200
BEESAT 2 22 Aug 14:06:24 14:10:10 36° 52° (NE) 14:13:53 435.950
ISS 22 Aug 14:07:46 14:09:15 12° 12° (NNE) 14:10:44 437.550
nSIGHT-1 22 Aug 14:13:49 14:15:27 13° 14° (NNE) 14:17:04 .
AO-85 22 Aug 14:40:00 14:44:16 55° 242° (WSW) 14:48:52 145.980
UKube-1 22 Aug 14:40:25 14:44:45 88° 105° (ESE) 14:49:03 .
ITAMSAT 1 22 Aug 14:47:45 14:52:16 31° 67° (ENE) 14:56:47 435.822/435.867
50 SAT 22 Aug 14:50:25 14:53:03 21° 290° (WNW) 14:55:38 437.505
ITUPSAT 1 22 Aug 14:50:30 14:51:56 11° 90° (E) 14:53:22 437.325
Gurwin Techsat 1B 22 Aug 14:51:41 14:56:11 28° 264° (W) 15:00:44 435.225
DX 1 22 Aug 15:06:08 15:09:59 31° 291° (WNW) 15:13:48 434.975-435.025
Oscar 19 22 Aug 15:06:15 15:08:36 13° 270° (W) 15:10:58 437.125/150
MOZHAYETS 4 22 Aug 15:18:46 15:22:13 21° 94° (E) 15:25:40
YUBILEINY 22 Aug 15:20:21 15:28:26 43° 87° (E) 15:36:28 435.215
Tancredo 1 22 Aug 15:39:57 15:42:46 52° 222° (SW) 15:45:36 437.200
AO-7 22 Aug 15:41:01 15:49:23 77° 254° (WSW) 15:57:48 .
ISS 22 Aug 15:43:22 15:46:27 37° 31° (NNE) 15:49:31 437.550
BEESAT 2 22 Aug 15:44:45 15:47:39 19° 249° (WSW) 15:50:32 435.950
nSIGHT-1 22 Aug 15:49:20 15:52:28 44° 32° (NNE) 15:55:35 .
BEESAT 22 Aug 15:49:55 15:54:33 50° 100° (E) 15:59:11 436.000
RS-15 22 Aug 16:16:39 16:25:06 20° 3° (N) 16:33:23 29.354- 29.394
ITUPSAT 1 22 Aug 16:25:27 16:30:13 71° 287° (WNW) 16:34:59 437.325
ITAMSAT 1 22 Aug 16:27:04 16:31:39 31° 263° (W) 16:36:15 435.822/435.867
DOVE 4 22 Aug 16:52:50 16:57:42 39° 71° (ENE) 17:02:28 437.250
KKS-1 22 Aug 16:53:44 16:56:36 17° 93° (E) 16:59:26 437.445
MOZHAYETS 4 22 Aug 16:55:12 16:59:27 37° 289° (WNW) 17:03:42
CUTE-I 22 Aug 17:10:53 17:14:40 20° 63° (ENE) 17:18:27 437.470
YUBILEINY 22 Aug 17:17:03 17:25:11 41° 286° (WNW) 17:33:20 435.215
HO-68 22 Aug 17:18:16 17:21:17 13° 52° (NE) 17:24:18 435.675
CUBESAT XI-V 22 Aug 17:19:39 17:24:23 80° 102° (ESE) 17:29:06 437.345
ISS 22 Aug 17:20:09 17:22:47 22° 228° (SW) 17:25:24 437.550
KAITUO 1B 22 Aug 17:21:40 17:23:41 14° 66° (ENE) 17:25:43 145.475/437.950
nSIGHT-1 22 Aug 17:26:18 17:28:37 18° 229° (SW) 17:30:56 .
STARS 22 Aug 17:27:05 17:29:41 15° 93° (E) 17:32:17 437.465
BEESAT 22 Aug 17:28:49 17:31:55 17° 296° (WNW) 17:35:00 436.000
AO-7 22 Aug 17:39:35 17:43:20 13° 271° (W) 17:47:06 .
LilacSat-2 22 Aug 17:49:22 17:52:58 44° 74° (ENE) 17:56:36 437.200
NUDT-PHONESAT 22 Aug 17:50:05 17:53:17 29° 72° (ENE) 17:56:32 437.300
XW-2D 22 Aug 17:51:08 17:54:42 45° 74° (ENE) 17:58:20 145.860 - 145.880
O/OREOS (USA 219) 22 Aug 18:02:02 18:04:24 14° 54° (NE) 18:06:47 437.305
XW-2B 22 Aug 18:02:07 18:05:48 60° 75° (ENE) 18:09:32 145.730 - 145.750
CUTE 1.7 + AOD 2 22 Aug 18:05:08 18:06:54 12° 64° (ENE) 18:08:40 437.475
XW-2C 22 Aug 18:21:16 18:25:00 73° 259° (WSW) 18:28:47 145.795 - 145.815
KKS-1 22 Aug 18:29:09 18:33:19 42° 289° (WNW) 18:37:28 437.445
DOVE 4 22 Aug 18:31:07 18:35:24 25° 266° (W) 18:39:40 437.250
RS-15 22 Aug 18:31:46 18:42:45 37° 37° (NE) 18:53:10 29.354- 29.394
XW-2F 22 Aug 18:31:51 18:35:31 55° 260° (W) 18:39:14 145.980 - 146.000
CUBEBUG 2 22 Aug 18:35:56 18:38:10 14° 66° (ENE) 18:40:22 437.445
SEEDS 22 Aug 18:47:24 18:50:40 22° 68° (ENE) 18:53:59 437.485
CUTE-I 22 Aug 18:49:04 18:54:17 53° 260° (W) 18:59:32 437.470
KAITUO 1B 22 Aug 18:53:54 18:57:20 36° 262° (W) 19:00:49 145.475/437.950
CUBESAT XI-V 22 Aug 18:59:45 19:01:03 11° 299° (WNW) 19:02:21 437.345
HO-68 22 Aug 19:00:38 19:07:43 69° 71° (ENE) 19:14:51 435.675
STARS 22 Aug 19:02:05 19:06:14 44° 288° (WNW) 19:10:22 437.465
AO-73 22 Aug 19:20:31 19:21:59 12° 64° (ENE) 19:23:26 145.935
NUDT-PHONESAT 22 Aug 19:24:55 19:27:13 16° 267° (W) 19:29:33 437.300
LilacSat-2 22 Aug 19:26:15 19:27:29 11° 269° (W) 19:28:43 437.200
AAUSAT CUBESAT 2 22 Aug 19:26:32 19:30:03 27° 70° (ENE) 19:33:36 437.432
XW-2D 22 Aug 19:28:02 19:29:08 11° 269° (W) 19:30:13 145.860 - 145.880
CUTE 1.7 + AOD 2 22 Aug 19:38:03 19:42:13 58° 260° (W) 19:46:25 437.475
O/OREOS (USA 219) 22 Aug 19:39:44 19:44:14 64° 252° (WSW) 19:48:45 437.305
XW-2A 22 Aug 19:53:39 19:56:56 64° 258° (WSW) 20:00:15 145.665 - 145.685
UWE-3 22 Aug 19:58:32 20:02:42 68° 75° (ENE) 20:06:49 435.000/436.395/437.385
Oscar 11 22 Aug 20:00:50 20:04:23 25° 69° (ENE) 20:07:56 .
CUBEBUG 2 22 Aug 20:10:16 20:14:23 48° 261° (W) 20:18:27 437.445
STRAND 1 22 Aug 20:17:47 20:22:54 71° 102° (ESE) 20:27:58 437.568
SEEDS 22 Aug 20:22:32 20:26:11 29° 264° (W) 20:29:53 437.485
ZACube-1 22 Aug 20:33:36 20:37:46 88° 262° (W) 20:41:55 437.345
RS-15 22 Aug 20:44:28 20:56:27 78° 243° (WSW) 21:07:46 29.354- 29.394
HO-68 22 Aug 20:50:52 20:55:59 21° 268° (W) 21:01:09 435.675
AO-73 22 Aug 20:53:39 20:57:43 57° 260° (W) 21:01:47 145.935
AAUSAT CUBESAT 2 22 Aug 21:02:07 21:05:27 23° 265° (W) 21:08:48 437.432
Max Valier Satellite 22 Aug 21:09:06 21:12:00 23° 70° (ENE) 21:14:54 145.860
PCSat 22 Aug 21:15:39 21:19:06 17° 105° (ESE) 21:22:35 145.827
Oscar 11 22 Aug 21:36:48 21:40:25 26° 265° (W) 21:44:04 .
FO-29 22 Aug 21:38:44 21:43:36 32° 96° (E) 21:48:12 435.910
UNISAT 6 22 Aug 21:39:17 21:41:10 12° 91° (E) 21:43:03 437.425
SO-50 22 Aug 21:45:40 21:48:33 17° 110° (ESE) 21:51:26 436.795
DELFI C3 22 Aug 21:47:30 21:51:30 83° 255° (WSW) 21:55:32 145.870
EO-88 22 Aug 21:57:39 22:01:15 76° 77° (ENE) 22:04:54 145.990 - 145.960
STRAND 1 22 Aug 21:58:50 22:01:27 14° 299° (WNW) 22:04:04 437.568
TIGRISAT 22 Aug 22:12:13 22:15:54 27° 96° (E) 22:19:39 435.000
PRISM 22 Aug 22:39:57 22:43:49 38° 98° (E) 22:47:38 437.425
Max Valier Satellite 22 Aug 22:42:59 22:45:45 20° 265° (W) 22:48:33 145.860
ESTCUBE 1 22 Aug 22:56:18 23:00:20 34° 70° (ENE) 23:04:26 437.505/2401.250
PCSat 22 Aug 22:56:36 23:01:57 61° 302° (WNW) 23:07:21 145.827
RS-15 22 Aug 23:00:11 23:06:41 17° 264° (W) 23:13:02 29.354- 29.394
UNISAT 6 22 Aug 23:13:56 23:18:09 54° 286° (WNW) 23:22:27 437.425
LO-87 22 Aug 23:20:31 23:24:06 78° 258° (WSW) 23:27:41 145.935 - 145.965
FO-29 22 Aug 23:23:58 23:28:37 28° 295° (WNW) 23:33:02 435.910
SO-50 22 Aug 23:24:13 23:28:36 50° 306° (NW) 23:33:00 436.795
M-CUBED/EXP-1 PRIME 22 Aug 23:25:21 23:25:34 10° 93° (E) 23:25:49 437.505
AIST 2D 22 Aug 23:38:14 23:41:23 29° 97° (E) 23:44:31 435.315
QB50P2 22 Aug 23:40:26 23:42:45 14° 92° (E) 23:45:04 145.880/145.840
EO-79 22 Aug 23:40:40 23:42:36 13° 92° (E) 23:44:32 145.935-145.965
TIGRISAT 22 Aug 23:48:57 23:52:29 25° 291° (WNW) 23:56:05 435.000
DUCHIFAT 1 23 Aug 00:06:57 00:10:05 20° 94° (E) 00:13:14 145.980
PRISM 23 Aug 00:16:07 00:18:46 17° 294° (WNW) 00:21:24 437.425
SPROUT 23 Aug 00:20:24 00:24:37 69° 75° (ENE) 00:28:52 437.525
DX 1 23 Aug 00:25:29 00:28:29 18° 65° (ENE) 00:31:29 434.975-435.025
VELOX 1 23 Aug 00:29:21 00:33:47 70° 75° (ENE) 00:38:14 145.980
ESTCUBE 1 23 Aug 00:33:43 00:37:11 22° 266° (W) 00:40:42 437.505/2401.250
NO-84 23 Aug 00:44:01 00:46:59 74° 134° (SE) 00:49:49 435.350 FM
PCSat 23 Aug 00:44:50 00:46:29 11° 322° (NW) 00:48:08 145.827
NANOSAT C BR1 23 Aug 00:52:24 00:56:37 81° 103° (ESE) 01:00:48 145.865
M-CUBED/EXP-1 PRIME 23 Aug 00:56:14 01:00:30 64° 291° (WNW) 01:04:26 437.505
POLYITAN 1 23 Aug 00:59:16 01:03:28 75° 286° (WNW) 01:07:41 437.675
AIST 2D 23 Aug 01:12:08 01:14:19 16° 292° (WNW) 01:16:30 435.315
EO-79 23 Aug 01:14:34 01:18:37 49° 287° (WNW) 01:22:40 145.935-145.965
QB50P2 23 Aug 01:14:43 01:18:45 44° 287° (WNW) 01:22:45 145.880/145.840
50 SAT 23 Aug 01:19:20 01:22:44 77° 258° (WSW) 01:26:10 437.505
Gurwin Techsat 1B 23 Aug 01:29:46 01:32:34 14° 91° (E) 01:35:21 435.225
YUBILEINY 23 Aug 01:32:12 01:38:07 20° 64° (ENE) 01:43:59 435.215
BUGSAT 1 23 Aug 01:32:46 01:36:43 52° 100° (E) 01:40:39 437.445
UKube-1 23 Aug 01:33:34 01:37:51 65° 74° (ENE) 01:42:09 .
